Flag for Germany Weather past 2 weeks in Starnberg, Bavaria, Germany

Now
34 °F

Clear.


Feels Like: 27 °F
Forecast: 31 / 35 °F
Wind: 8 mph from Southwest

Location: Oberpfaffenhofen

Current Time: Mar 4, 2015 at 9:30:09 PM

Latest Report: Mar 4, 2015 at 7:20 PM


Visibility: 10 mi

Pressure: 30.30 "Hg

Humidity: 81%

Dew point: 28 °F

Location of StarnbergLocation

Historic Weather in Starnberg — Graph

°F

Starnberg temperature yesterday

Maximum temperature yesterday: 45 °F (at 2:20 PM)
Minimum temperature yesterday: 32 °F (at 6:50 AM)
Average temperature yesterday: 40 °F

Past Weeks' High & Low Weather Summary

 TemperatureHumidityPressure
High57 °F (Feb 20, 3:20 PM)100% (Feb 18, 7:20 AM)30.66 "Hg (Feb 18, 7:20 AM)
Low21 °F (Feb 27, 6:50 AM)21% (Feb 20, 3:20 PM)29.47 "Hg (Feb 21, 12:50 PM)
Average36 °F75%30.05 "Hg
* Reported Feb 17 7:20 PM — Mar 4 7:20 PM, Starnberg, Weather by CustomWeather, © 2015

Note: Actual official high and low records may vary slightly from our data, if they occured in-between our weather recording intervals... More about our weather records

Advertising

Starnberg weather history for previous 24 hours

 ConditionsComfort  
Time TempWeatherWind HumidityBarometerVisibility
7:20 PM
Wed, Mar 4
34 °FClear.8 mph81%30.30 "Hg10 mi
6:50 PM34 °FClear.8 mph75%30.30 "Hg10 mi
6:20 PM34 °FClear.8 mph75%30.30 "Hg10 mi
5:50 PM36 °FSunny.7 mph75%30.27 "Hg10 mi
5:20 PM37 °FPassing clouds.8 mph70%30.27 "HgN/A
4:50 PM39 °FPassing clouds.10 mph65%30.27 "HgN/A
4:20 PM39 °FPassing clouds.8 mph65%30.24 "HgN/A
3:50 PM39 °FPassing clouds.12 mph65%30.24 "HgN/A
3:20 PM39 °FScattered clouds.12 mph61%30.24 "HgN/A
2:50 PM39 °FScattered clouds.13 mph65%30.24 "HgN/A
2:20 PM39 °FScattered clouds.10 mph65%30.27 "HgN/A
1:50 PM39 °FScattered clouds.12 mph70%30.27 "HgN/A
1:20 PM39 °FScattered clouds.9 mph70%30.27 "HgN/A
12:50 PM39 °FScattered clouds.8 mph75%30.27 "HgN/A
12:20 PM37 °FScattered clouds.10 mph75%30.27 "HgN/A
11:50 AM37 °FScattered clouds.9 mph75%30.27 "HgN/A
11:20 AM37 °FBroken clouds.6 mph81%30.27 "HgN/A
10:50 AM36 °FScattered clouds.8 mph81%30.27 "HgN/A
10:20 AM36 °FBroken clouds.7 mph87%30.27 "HgN/A
9:50 AM34 °FBroken clouds.6 mph93%30.27 "HgN/A
9:20 AM34 °FScattered clouds.10 mph87%30.27 "HgN/A
8:50 AM32 °FBroken clouds.8 mph93%30.27 "HgN/A
8:20 AM32 °FBroken clouds.9 mph93%30.24 "HgN/A
7:50 AM32 °FBroken clouds.8 mph93%30.24 "HgN/A
7:20 AM32 °FBroken clouds.9 mph93%30.24 "HgN/A
6:50 AM32 °FPartly cloudy.9 mph100%30.24 "HgN/A
Weather by CustomWeather, © 2015

See weather overviewHow to use our weather pages